Lid_Strength_Index
3 3 3 3 2 3 2 1 2 3 4 5 6 7 6 6 6 7 8 8 9 10 10 11 11 11 11 12 12 12 12 12 12 11 10 9 10 10 8 7 6 7 8
3 3 3 3 3 3 2 2 2 4 4 5 6 7 6 6 7 7 9 9 10 10 11 11 12 10 12 12 13 13 12 12 12 12 11 10 10 9 8 8 7 6 7
2 3 3 2 2 3 2 2 3 3 4 5 5 6 5 7 8 9 9 10 11 11 12 12 12 11 12 12 13 12 13 11 10 11 12 10 10 10 9 8 9 9 7
2 2 3 3 2 2 3 4 4 4 5 5 5 6 8 9 10 10 10 11 11 11 11 11 11 12 12 12 12 12 10 10 11 12 11 11 11 10 10 10 11 10 9
2 2 3 3 2 2 3 3 4 4 5 7 7 7 8 8 9 11 12 12 13 12 12 11 10 9 8 9 10 10 10 11 12 12 12 12 9 9 9 8 12 12 10
2 3 3 2 2 3 3 4 4 5 6 7 8 8 9 9 10 10 10 12 13 13 13 12 11 10 7 6 5 7 9 12 12 13 13 13 12 11 8 9 9 14 13
2 2 3 3 5 6 5 5 6 7 8 9 9 9 10 10 11 11 11 13 13 13 13 13 12 9 7 7 6 7 7 7 9 12 13 12 12 11 11 8 9 11 13
3 2 4 6 6 7 7 7 8 7 8 9 10 10 11 11 12 12 12 12 13 13 13 13 10 9 8 8 9 9 10 9 8 9 11 10 10 9 10 9 11 11 12
3 4 6 6 6 7 8 8 8 9 9 10 11 12 12 13 12 12 13 13 14 14 11 10 10 10 9 8 9 10 8 8 6 6 7 7 8 8 7 9 8 12 13
3 5 5 6 7 7 8 8 9 9 11 11 12 12 11 12 12 13 13 13 13 12 10 9 8 10 10 10 10 10 9 9 8 7 7 7 8 8 7 9 9 11 13
5 6 6 6 8 8 9 9 9 10 11 11 12 12 12 12 13 13 13 11 10 10 10 10 10 10 10 10 10 10 9 8 7 6 6 7 7 8 8 9 9 10 13
6 6 7 8 8 9 10 10 10 11 12 12 12 12 12 12 12 12 11 10 9 10 11 11 11 10 10 10 9 10 9 7 6 6 7 8 9 9 8 8 9 10 9
7 9 9 10 10 10 10 10 10 11 12 13 13 14 14 12 10 9 10 9 9 10 10 9 10 10 9 9 9 8 7 6 7 6 9 8 9 9 9 9 8 9 9
8 9 10 11 10 10 11 11 11 11 13 13 14 13 12 11 10 8 8 9 9 9 8 9 9 9 8 7 7 6 6 6 7 7 8 8 9 8 9 9 10 10 10
9 10 11 11 10 11 11 11 12 12 14 13 12 11 11 12 12 9 9 10 10 10 10 8 8 7 6 6 5 5 5 6 7 8 8 8 9 8 9 9 9 9 10
10 10 11 11 11 11 12 13 13 13 12 12 11 11 12 11 10 10 10 11 11 10 10 10 10 9 9 7 6 6 5 6 6 7 9 9 9 9 9 8 8 9 9
11 10 11 11 12 12 14 14 13 12 11 12 12 10 10 10 11 10 10 11 11 10 10 10 9 9 8 6 7 8 8 8 8 8 9 9 9 8 9 9 8 8 8
10 10 11 11 12 13 12 11 11 12 12 12 12 10 11 10 10 10 10 10 10 10 10 8 8 8 7 7 7 8 7 7 8 8 9 8 8 9 9 9 9 9 8
10 10 11 12 13 12 11 11 12 12 13 12 10 10 11 11 11 11 10 10 11 12 11 10 10 10 9 9 9 8 8 9 8 8 7 7 7 8 9 9 9 10 9
11 12 12 13 13 11 11 12 13 12 12 11 11 11 10 11 12 12 12 12 12 13 12 10 10 10 10 10 9 9 8 9 9 7 7 7 7 7 8 8 8 9 8
13 13 13 12 11 11 12 12 11 11 11 12 12 12 13 12 13 13 13 13 14 13 12 11 10 10 10 10 10 10 9 9 9 8 7 7 7 8 7 8 8 8 8
12 11 11 11 11 11 11 11 11 11 11 12 12 12 13 13 13 13 13 13 13 13 12 11 10 11 11 11 11 11 11 10 9 8 8 8 8 8 7 8 8 9 9
12 11 11 11 11 12 11 11 11 11 11 11 12 12 13 13 13 13 13 13 13 12 12 12 13 12 12 11 11 12 11 11 10 8 7 7 8 8 7 8 8 9 9
11 11 11 11 11 11 11 11 11 12 11 12 12 12 13 13 13 13 13 13 13 13 12 13 13 13 12 11 11 11 11 11 9 8 7 6 7 8 7 8 9 9 9
10 11 11 11 11 12 11 11 11 11 11 11 12 12 13 13 13 13 13 13 13 13 14 14 14 13 12 11 11 11 11 10 10 10 7 7 7 6 7 8 9 9 10
10 11 11 11 11 11 11 11 11 11 11 12 12 12 12 13 13 13 14 14 14 14 14 14 14 13 12 11 11 11 11 11 10 10 8 7 7 7 6 7 7 9 9